Location: *
(46.3500°N, 10.9000°E)
Time: 04:50:09
(UTC+00:00)

Cosmos 921 Rocket - Pass Details

Date: 09 April 2020
Orbit: 572 x 632 km, 75.8° (Epoch: 01 June)

Event Time Altitude Azimuth Distance (km) Brightness Sun altitude
Rises 18:59:45 0° 343° (NNW) 2,790 7.1 -11.2°
Reaches altitude 10° 19:01:59 10° 346° (NNW) 1,888 6.1 -11.5°
Maximum altitude 19:06:09 68° 69° (ENE) 622 2.9 -12.2°
Enters shadow 19:09:44 14° 152° (SSE) 1,655 4.8 -12.7°
